COSMOS 1980 DEB

Satellite information

Favourite Embed

Satellite Type and Status

DEBRISIN ORBIT

Key statistics

Satellite COSMOS 1980 DEB at a glance.

Uptime

13482

Days in orbit

Revolutions

≈ 14.1

Per day

Orbit

LEO

Low Earth Orbit

Inclination

71.0

Latest

Satellite identification and parameters

Extended collection of information and parameters for COSMOS 1980 DEB.

Object identification

Identified? True

Debris? True

Object name: COSMOS 1980 DEB

International designator: 1988-102J

Object number (NORAD): 20301

Object ID (CCSDS): 20301

Country: COMMONWEALTH OF INDEPENDENT STATES (CIS)

Current information (Y/N): Y

RCS size: SMALL

Orbital parameters

Period: 101.807 minutes

Inclination: 70.9962 deg

SMA: 7222.348 km

Apoapsis: 855.073 km

Periapsis: 833.353 km

RAAN: 163.9229 deg

Eccentricy: 0.0015037

Argument of periapsis: 159.5276 deg

Mean anomaly: 200.6452 deg

Mean motion: 14.14441975 rev/day

Mean motion (dot): 0.00000225 rev/day2

B* drag term: 0.00014185 1/REarth

Two-line elements (TLE)

Creation date: Oct. 22, 2025, 12:06 a.m.

Reference frame: TEME

Reference center: EARTH

Epoch: Oct. 21, 2025, 7:55 p.m. UTC

TLE line 0: 0 COSMOS 1980 DEB

TLE line 1: 1 20301U 88102J 25294.83010992 .00000225 00000-0 14185-3 0 9990

TLE line 2: 2 20301 70.9962 163.9229 0015037 159.5276 200.6452 14.14441975871638

Live tracking on map

Real-time ground track for satellite COSMOS 1980 DEB.

In-orbit conjunctions

A list of the most updated potential collisions computed for object COSMOS 1980 DEB.

Target Orbit TCA Probability of collision Miss distance Type
CZ-6A DEB SSO 2025-10-23 12:15:25 0.00017742 524.0 (m) DEBRIS
FENGYUN 1C DEB SSO 2025-03-23 13:53:57 0.0001454362 415.0 (m) DEBRIS
DMSP 5D-2 F13 DEB SSO 2024-12-01 01:08:32 0.000182277 138.0 (m) DEBRIS
NOAA 16 DEB SSO 2024-07-13 00:56:39 0.0001369783 284.0 (m) DEBRIS

Associated space launch

Second generation ELING satellite

COSMOS 1980 DEB was lifted into orbit during the mission ‘Zenit-2 | Tselina-2 6’, on board a Zenit-2 space rocket.

The launch took place on Nov. 23, 1988, 2:50 p.m. from 45/1.

For more information about the launch, click the button.

Launch to space Zenit-2 | Tselina-2 6
Zenit-2 | Tselina-2 6

Agency: N/A

Status: Launch Successful

Launch date: Nov. 23, 1988, 2:50 p.m. UTC

Rocket: Zenit-2

Launch pad: 45/1

Location: Baikonur Cosmodrome, Republic of Kazakhstan

...

Latest news about this satellite

There are no fresh news available about this satellite. Check back as we update our databases every day.


Newsletter sign-up

Weekly statistics, charts and insights to help you stay on top of the space industry.